| time (UTC) | temp F | wind direction | speed MPH | gust MPH | rain 1hr in | rain 24hr in | rain mn in | humidity % | barometer mb |
| 20260903043908 | 62 | 202 | 8.0 | 15.0 | 0.00 | 0.00 | 0.00 | 79 | 1015.5 |
| 20260903042408 | 62 | 204 | 8.0 | 15.0 | 0.00 | 0.00 | 0.00 | 80 | 1015.6 |
| 20260903040907 | 60 | 195 | 8.0 | 13.0 | 0.00 | 0.00 | 0.00 | 80 | 1015.9 |
| 20260903035407 | 60 | 189 | 8.0 | 13.0 | 0.00 | 0.00 | 0.00 | 80 | 1015.9 |
| 20260903033907 | 60 | 196 | 8.0 | 15.0 | 0.00 | 0.00 | 0.00 | 81 | 1016.4 |
| 20260903032407 | 60 | 198 | 8.0 | 17.0 | 0.00 | 0.00 | 0.00 | 82 | 1016.4 |
| 20260903030907 | 60 | 200 | 8.0 | 15.0 | 0.00 | 0.00 | 0.00 | 81 | 1016.4 |
| 20260903025407 | 60 | 201 | 8.0 | 15.0 | 0.00 | 0.00 | 0.00 | 82 | 1016.6 |
| 20260903023907 | 60 | 197 | 4.0 | 11.0 | 0.00 | 0.00 | 0.00 | 86 | 1016.8 |
| 20260903022407 | 60 | 197 | 4.0 | 11.0 | 0.00 | 0.00 | 0.00 | 86 | 1016.8 |
| 20260903020907 | 60 | 210 | 11.0 | 24.0 | 0.00 | 0.00 | 0.00 | 83 | 1017.0 |
| 20260903015407 | 60 | 211 | 6.0 | 15.0 | 0.00 | 0.00 | 0.00 | 80 | 1017.4 |
| 20260903013905 | 62 | 214 | 8.0 | 13.0 | 0.00 | 0.00 | 0.00 | 79 | 1017.3 |
| 20260903012405 | 62 | 214 | 8.0 | 13.0 | 0.00 | 0.00 | 0.00 | 79 | 1017.5 |
| 20260903010905 | 62 | 224 | 11.0 | 17.0 | 0.00 | 0.00 | 0.00 | 74 | 1017.8 |
| 20260903005405 | 62 | 212 | 6.0 | 13.0 | 0.00 | 0.00 | 0.00 | 74 | 1017.7 |
| 20260903003904 | 62 | 214 | 11.0 | 17.0 | 0.00 | 0.00 | 0.00 | 73 | 1017.8 |
| 20260903002405 | 62 | 206 | 11.0 | 15.0 | 0.00 | 0.00 | 0.00 | 72 | 1017.8 |
| 20260903000903 | 62 | 194 | 6.0 | 11.0 | 0.00 | 0.00 | 0.00 | 75 | 1017.9 |
| 20260902235403 | 62 | 191 | 6.0 | 11.0 | 0.00 | 0.00 | 0.00 | 76 | 1018.0 |
| 20260902233903 | 62 | 195 | 6.0 | 13.0 | 0.00 | 0.00 | 0.00 | 75 | 1018.1 |
| 20260902232403 | 60 | 179 | 6.0 | 8.0 | 0.00 | 0.00 | 0.00 | 82 | 1018.2 |
| 20260902230903 | 60 | 176 | 6.0 | 8.0 | 0.00 | 0.00 | 0.00 | 83 | 1018.3 |
| 20260902225404 | 60 | 178 | 6.0 | 8.0 | 0.00 | 0.00 | 0.00 | 83 | 1018.7 |
| 20260902223902 | 60 | 173 | 4.0 | 8.0 | 0.00 | 0.00 | 0.00 | 86 | 1018.8 |
| 20260902222403 | 60 | 174 | 4.0 | 8.0 | 0.00 | 0.00 | 0.00 | 87 | 1018.9 |
| 20260902220902 | 60 | 189 | 4.0 | 8.0 | 0.03 | 0.00 | 0.00 | 86 | 1019.0 |
| 20260902215402 | 60 | 194 | 4.0 | 8.0 | 0.01 | 0.00 | 0.00 | 85 | 1019.0 |
| 20260902213901 | 60 | 196 | 4.0 | 6.0 | 0.00 | 0.00 | 0.00 | 82 | 1019.1 |
| 20260902212401 | 60 | 191 | 4.0 | 6.0 | 0.00 | 0.00 | 0.00 | 82 | 1019.0 |
| 20260902210901 | 60 | 197 | 4.0 | 6.0 | 0.00 | 0.00 | 0.00 | 82 | 1019.2 |
| 20260902205359 | 60 | 201 | 4.0 | 6.0 | 0.00 | 0.00 | 0.00 | 82 | 1019.2 |
| 20260902203859 | 60 | 199 | 4.0 | 8.0 | 0.00 | 0.00 | 0.00 | 83 | 1019.3 |
| 20260902202358 | 60 | 196 | 4.0 | 6.0 | 0.00 | 0.00 | 0.00 | 83 | 1019.3 |
| 20260902200857 | 60 | 201 | 4.0 | 8.0 | 0.00 | 0.00 | 0.00 | 83 | 1019.4 |
| 20260902195356 | 62 | 196 | 4.0 | 8.0 | 0.00 | 0.00 | 0.00 | 83 | 1019.4 |
| 20260902193855 | 60 | 197 | 4.0 | 8.0 | 0.00 | 0.00 | 0.00 | 84 | 1019.5 |
| 20260902192355 | 62 | 187 | 4.0 | 6.0 | 0.00 | 0.00 | 0.00 | 83 | 1019.5 |
| 20260902190855 | 62 | 192 | 6.0 | 11.0 | 0.00 | 0.00 | 0.00 | 82 | 1019.6 |
| 20260902185355 | 62 | 205 | 8.0 | 13.0 | 0.02 | 0.00 | 0.00 | 78 | 1019.6 |
| 20260902183855 | 64 | 205 | 4.0 | 6.0 | 0.00 | 0.00 | 0.00 | 74 | 1019.6 |
| 20260902182355 | 62 | 201 | 2.0 | 4.0 | 0.00 | 0.00 | 0.00 | 75 | 1019.4 |
| 20260902180854 | 64 | 210 | 4.0 | 6.0 | 0.00 | 0.00 | 0.00 | 72 | 1019.2 |
| 20260902175354 | 64 | 211 | 2.0 | 4.0 | 0.00 | 0.00 | 0.00 | 72 | 1019.2 |
| 20260902173854 | 64 | 225 | 4.0 | 6.0 | 0.00 | 0.00 | 0.00 | 69 | 1019.2 |
| 20260902172353 | 64 | 222 | 4.0 | 11.0 | 0.00 | 0.00 | 0.00 | 69 | 1019.3 |
| 20260902170853 | 66 | 244 | 8.0 | 11.0 | 0.00 | 0.00 | 0.00 | 64 | 1019.2 |
| 20260902165352 | 68 | 238 | 6.0 | 11.0 | 0.00 | 0.00 | 0.00 | 58 | 1019.2 |
| 20260902163852 | 66 | 233 | 6.0 | 11.0 | 0.00 | 0.00 | 0.00 | 59 | 1019.4 |
| 20260902162352 | 66 | 235 | 4.0 | 8.0 | 0.00 | 0.00 | 0.00 | 61 | 1019.4 |
| 20260902160850 | 64 | 225 | 4.0 | 11.0 | 0.00 | 0.00 | 0.00 | 64 | 1019.6 |
| 20260902155350 | 64 | 216 | 6.0 | 11.0 | 0.00 | 0.00 | 0.00 | 61 | 1019.6 |
| 20260902153849 | 64 | 222 | 6.0 | 17.0 | 0.00 | 0.00 | 0.00 | 61 | 1019.6 |
| 20260902152348 | 64 | 244 | 11.0 | 17.0 | 0.00 | 0.00 | 0.00 | 62 | 1019.9 |
| 20260902150848 | 66 | 257 | 17.0 | 22.0 | 0.00 | 0.00 | 0.00 | 64 | 1019.9 |
| 20260902145348 | 66 | 265 | 13.0 | 22.0 | 0.00 | 0.00 | 0.00 | 63 | 1019.8 |
| 20260902143847 | 68 | 273 | 8.0 | 13.0 | 0.00 | 0.00 | 0.00 | 59 | 1019.6 |
| 20260902142346 | 69 | 233 | 11.0 | 15.0 | 0.00 | 0.00 | 0.00 | 62 | 1019.4 |
| 20260902140845 | 69 | 223 | 11.0 | 17.0 | 0.00 | 0.00 | 0.00 | 60 | 1019.6 |
| 20260902135344 | 69 | 223 | 11.0 | 17.0 | 0.00 | 0.00 | 0.00 | 60 | 1019.6 |
| 20260902133844 | 69 | 223 | 11.0 | 17.0 | 0.00 | 0.00 | 0.00 | 60 | 1019.6 |
| 20260902132343 | 69 | 223 | 11.0 | 17.0 | 0.00 | 0.00 | 0.00 | 60 | 1019.6 |
| 20260902130842 | 69 | 223 | 11.0 | 17.0 | 0.00 | 0.00 | 0.00 | 60 | 1019.6 |
| 20260902125341 | 69 | 223 | 11.0 | 17.0 | 0.00 | 0.00 | 0.00 | 60 | 1019.6 |
| 20260902123841 | 69 | 223 | 11.0 | 17.0 | 0.00 | 0.00 | 0.00 | 60 | 1019.6 |
| 20260902122341 | 69 | 229 | 11.0 | 17.0 | 0.00 | 0.00 | 0.00 | 57 | 1019.6 |
| 20260902120840 | 69 | 226 | 11.0 | 15.0 | 0.00 | 0.00 | 0.00 | 59 | 1019.6 |
| 20260902115340 | 69 | 222 | 11.0 | 13.0 | 0.00 | 0.00 | 0.00 | 58 | 1019.6 |
| 20260902113839 | 69 | 231 | 8.0 | 17.0 | 0.00 | 0.00 | 0.00 | 56 | 1019.8 |
| 20260902112338 | 69 | 231 | 8.0 | 17.0 | 0.00 | 0.00 | 0.00 | 56 | 1019.8 |
| 20260902110836 | 69 | 224 | 8.0 | 15.0 | 0.00 | 0.00 | 0.00 | 56 | 1020.0 |
| 20260902105336 | 68 | 229 | 11.0 | 15.0 | 0.00 | 0.00 | 0.00 | 56 | 1020.0 |
| 20260902103835 | 68 | 226 | 11.0 | 17.0 | 0.00 | 0.00 | 0.00 | 54 | 1020.0 |
| 20260902102334 | 68 | 226 | 11.0 | 17.0 | 0.00 | 0.00 | 0.00 | 54 | 1020.0 |
| 20260902100834 | 68 | 238 | 11.0 | 17.0 | 0.00 | 0.00 | 0.00 | 57 | 1020.0 |
| 20260902095333 | 68 | 222 | 11.0 | 15.0 | 0.00 | 0.00 | 0.00 | 59 | 1020.0 |
| 20260902093833 | 68 | 233 | 11.0 | 15.0 | 0.00 | 0.00 | 0.00 | 61 | 1019.9 |
| 20260902092332 | 66 | 231 | 11.0 | 17.0 | 0.00 | 0.00 | 0.00 | 64 | 1019.9 |
| 20260902090831 | 66 | 224 | 8.0 | 17.0 | 0.00 | 0.00 | 0.00 | 64 | 1019.9 |
| 20260902085331 | 64 | 237 | 8.0 | 15.0 | 0.00 | 0.00 | 0.00 | 66 | 1019.8 |
| 20260902083830 | 64 | 227 | 8.0 | 13.0 | 0.00 | 0.00 | 0.00 | 68 | 1019.7 |
| 20260902082330 | 62 | 213 | 6.0 | 11.0 | 0.00 | 0.00 | 0.00 | 74 | 1019.7 |
| 20260902080830 | 62 | 215 | 6.0 | 11.0 | 0.00 | 0.00 | 0.00 | 73 | 1019.7 |
| 20260902075329 | 59 | 208 | 4.0 | 8.0 | 0.00 | 0.00 | 0.00 | 80 | 1019.7 |
| 20260902073828 | 59 | 200 | 4.0 | 8.0 | 0.00 | 0.00 | 0.00 | 82 | 1019.7 |
| 20260902072327 | 57 | 194 | 4.0 | 6.0 | 0.00 | 0.00 | 0.00 | 84 | 1019.6 |
| 20260902070827 | 57 | 189 | 2.0 | 4.0 | 0.00 | 0.00 | 0.00 | 88 | 1019.5 |
| 20260902065326 | 57 | 189 | 2.0 | 4.0 | 0.00 | 0.00 | 0.00 | 88 | 1019.5 |
| 20260902063825 | 55 | 195 | 2.0 | 4.0 | 0.00 | 0.00 | 0.00 | 89 | 1019.5 |
| 20260902062324 | 55 | 176 | 2.0 | 4.0 | 0.00 | 0.00 | 0.00 | 90 | 1019.6 |
| 20260902060824 | 53 | 170 | 4.0 | 4.0 | 0.00 | 0.00 | 0.00 | 92 | 1019.6 |
| 20260902055323 | 53 | 173 | 2.0 | 4.0 | 0.00 | 0.00 | 0.00 | 93 | 1019.4 |
| 20260902053823 | 51 | 171 | 2.0 | 4.0 | 0.00 | 0.00 | 0.00 | 93 | 1019.4 |
| 20260902052322 | 51 | 191 | 2.0 | 2.0 | 0.00 | 0.00 | 0.00 | 91 | 1019.4 |
| 20260902050822 | 51 | 183 | 2.0 | 2.0 | 0.00 | 0.00 | 0.00 | 94 | 1019.4 |
| 20260902045321 | 51 | 158 | 2.0 | 2.0 | 0.00 | 0.00 | 0.00 | 93 | 1019.4 |